Weather in Washington

United States     38°53′58″N   77°02′11″W
temp.,
°C
wind,
m/s
gust,
m/s
humid.,
%
clouds,
%
prec.,
mm/h
press.,
hPa
HPBL,
m
28 september, tue
tue2823:00+20ssw414515 0.0 1013419
02:00+19sw29573 0.0 1012280
05:00+18sw256310 0.0 101197
08:00+19wsw276390 0.0 1012166
11:00+25w375185 0.0 1011625
14:00+28w474344 0.0 10111890
17:00+25nnw2460100 0.3 1010188
20:00+20nnw138532 1.3 101262
29 september, wed
wed2923:00+18n27910 0.1 1013324
02:00+16n27840 0.1 1013282
05:00+14n310745 0.0 1015435
08:00+13n310675 0.0 1017419
11:00+18n46450 0.0 10181009
14:00+21nnw46381 0.0 10171411
17:00+21nnw46400 0.0 10161462
20:00+17ene12520 0.0 101744
30 september, thu
thu3023:00+16wnw11570 0.0 101827
02:00+14nw24680 0.0 1019115
05:00+13nnw25720 0.0 1019159
08:00+13nnw25690 0.0 1021169
11:00+18n35500 0.0 10211154
14:00+19nnw464538 0.0 10211655
17:00+19n46459 0.0 10211563
20:00+16ne36550 0.0 1022286
1 october, fri
fri123:00+14nne26580 0.0 1024262
02:00+12n24620 0.0 1024162
05:00+11n23645 0.0 1024113
08:00+11n126122 0.0 1025122
11:00+17nne11429 0.0 1025702
14:00+21w123894 0.0 10231178
17:00+21wnw12405 0.0 10221211
20:00+17ene2358100 0.0 102287
2 october, sat
sat223:00+15ese23665 0.0 102292
02:00+14s11715 0.0 102219
05:00+13sse117936 0.0 102221
08:00+14s118182 0.0 102281
11:00+20ssw236221 0.0 1021704
14:00+25ssw23507 0.0 10191165
17:00+26ssw234789 0.0 10161337
20:00+21ene1276100 0.2 101798